COSMOS 1536

Last updated on Tue Oct 21 2025 00:02:14 GMT+0000 (Coordinated Universal Time)

1 14699U 84013A 25293.35735211 .00014017 00000+0 61874-3 0 9994 2 14699 82.5449 247.0597 0017463 59.9912 300.3054 15.21498662251268
UTC large
Height (km)
Speed (km/s)
/
Latitude / Longitude
Inclination (degrees)
Orbital Period (minutes)
Azimuth
Elevation
Range (km)
Doppler Factor

Next 0 passes for location: London (51.5072 / 0.1276)

Sorry there are no passes over London.